When you browse on this site, cookies collect data to enhance your experience and personalize the content and advertising you see.
Visit our Privacy Policy to learn more. By continuing to use the site, you agree to this use of cookies and data.
  • In Latvia
  • List of Countries
  • For 7 days
  • Water Temperature
  • Weather Map
  • Weather Widgets
  • user-avatar
    Login

    Hourly Weather Turubino

    Today, 29 May, Friday

    Time Temperature Precipitation Wind Pressure Humidity
    00:00 +13°C° 0 mm 1 mps 751 mmHg 81%
    01:00 +13°C° 0 mm 1 mps 751 mmHg 80%
    02:00 +13°C° 0 mm 1 mps 751 mmHg 80%
    03:00 +13°C° 0 mm 1 mps 750 mmHg 79%
    04:00 +13°C° 0.2 mm 1 mps 750 mmHg 83%
    05:00 +13°C° 0.2 mm 2 mps 750 mmHg 86%
    06:00 +13°C° 0.2 mm 2 mps 749 mmHg 89%
    07:00 +13°C° 1.3 mm 2 mps 749 mmHg 91%
    08:00 +12°C° 1.3 mm 3 mps 749 mmHg 93%
    09:00 +12°C° 1.3 mm 3 mps 749 mmHg 95%
    10:00 +12°C° 3.7 mm 3 mps 748 mmHg 96%
    11:00 +13°C° 3.7 mm 3 mps 748 mmHg 97%
    12:00 +13°C° 3.7 mm 3 mps 748 mmHg 98%
    13:00 +15°C° 1.1 mm 2 mps 748 mmHg 97%
    14:00 +16°C° 1.1 mm 2 mps 748 mmHg 96%
    15:00 +17°C° 1.1 mm 2 mps 748 mmHg 95%
    16:00 +17°C° 1.3 mm 2 mps 747 mmHg 96%
    17:00 +17°C° 1.3 mm 2 mps 747 mmHg 96%
    18:00 +17°C° 1.3 mm 2 mps 747 mmHg 96%
    19:00 +17°C° 3.4 mm 2 mps 747 mmHg 97%
    20:00 +16°C° 3.4 mm 2 mps 747 mmHg 98%
    21:00 +16°C° 3.4 mm 3 mps 747 mmHg 98%
    22:00 +16°C° 1.5 mm 3 mps 747 mmHg 98%
    23:00 +16°C° 1.5 mm 3 mps 747 mmHg 98%

    Tomorrow, 30 May, Saturday

    Time Temperature Precipitation Wind Pressure Humidity
    00:00 +16°C° 1.5 mm 3 mps 747 mmHg 98%
    01:00 +16°C° 1.2 mm 3 mps 747 mmHg 98%
    02:00 +16°C° 1.2 mm 3 mps 746 mmHg 98%
    03:00 +16°C° 1.2 mm 3 mps 746 mmHg 98%
    04:00 +16°C° 0 mm 3 mps 746 mmHg 97%
    05:00 +16°C° 0 mm 3 mps 746 mmHg 97%
    06:00 +16°C° 0 mm 3 mps 746 mmHg 96%
    07:00 +17°C° 0 mm 4 mps 746 mmHg 95%
    08:00 +17°C° 0 mm 4 mps 746 mmHg 94%
    09:00 +16°C° 0 mm 5 mps 746 mmHg 93%
    10:00 +17°C° 0 mm 5 mps 746 mmHg 90%
    11:00 +17°C° 0 mm 5 mps 746 mmHg 87%
    12:00 +19°C° 0 mm 5 mps 746 mmHg 85%
    13:00 +19°C° 0 mm 6 mps 746 mmHg 83%
    14:00 +20°C° 0 mm 6 mps 745 mmHg 81%
    15:00 +20°C° 0 mm 6 mps 745 mmHg 80%
    16:00 +19°C° 0 mm 6 mps 745 mmHg 81%
    17:00 +19°C° 0 mm 6 mps 745 mmHg 81%
    18:00 +19°C° 0 mm 6 mps 744 mmHg 82%
    19:00 +17°C° 0 mm 6 mps 744 mmHg 83%
    20:00 +17°C° 0 mm 6 mps 744 mmHg 83%
    21:00 +17°C° 0 mm 6 mps 744 mmHg 84%
    22:00 +16°C° 0 mm 6 mps 744 mmHg 83%
    23:00 +16°C° 0 mm 6 mps 744 mmHg 82%

    Day after tomorrow, 31 May, Sunday

    Time Temperature Precipitation Wind Pressure Humidity
    00:00 +15°C° 0 mm 7 mps 744 mmHg 81%
    01:00 +14°C° 0 mm 7 mps 744 mmHg 81%
    02:00 +14°C° 0 mm 7 mps 744 mmHg 81%
    03:00 +13°C° 0 mm 6 mps 744 mmHg 81%
    04:00 +12°C° 0.1 mm 7 mps 744 mmHg 80%
    05:00 +12°C° 0.1 mm 7 mps 744 mmHg 78%
    06:00 +11°C° 0.1 mm 7 mps 744 mmHg 77%
    07:00 +11°C° 0.2 mm 7 mps 744 mmHg 76%
    08:00 +11°C° 0.2 mm 6 mps 745 mmHg 75%
    09:00 +13°C° 0.2 mm 6 mps 745 mmHg 73%
    10:00 +14°C° 0.3 mm 6 mps 745 mmHg 68%
    11:00 +15°C° 0.3 mm 6 mps 746 mmHg 63%
    12:00 +16°C° 0.3 mm 6 mps 746 mmHg 58%
    13:00 +17°C° 0 mm 6 mps 746 mmHg 54%
    14:00 +19°C° 0 mm 6 mps 747 mmHg 51%
    15:00 +19°C° 0 mm 6 mps 747 mmHg 47%
    16:00 +19°C° 0 mm 6 mps 747 mmHg 49%
    17:00 +17°C° 0 mm 6 mps 747 mmHg 52%
    18:00 +17°C° 0 mm 5 mps 747 mmHg 54%
    19:00 +15°C° 0 mm 5 mps 748 mmHg 60%
    20:00 +14°C° 0 mm 5 mps 748 mmHg 66%
    21:00 +12°C° 0 mm 4 mps 748 mmHg 72%
    22:00 +11°C° 0 mm 4 mps 749 mmHg 72%
    23:00 +10°C° 0 mm 4 mps 749 mmHg 72%

    1 June, Monday

    Time Temperature Precipitation Wind Pressure Humidity
    00:00 +8°C° 0 mm 4 mps 749 mmHg 72%
    01:00 +7°C° 0 mm 4 mps 750 mmHg 72%
    02:00 +7°C° 0 mm 3 mps 750 mmHg 73%
    03:00 +5°C° 0 mm 3 mps 750 mmHg 73%
    04:00 +5°C° 0 mm 3 mps 750 mmHg 72%
    05:00 +5°C° 0 mm 3 mps 750 mmHg 71%
    06:00 +7°C° 0 mm 3 mps 750 mmHg 70%
    07:00 +7°C° 0 mm 4 mps 751 mmHg 64%
    08:00 +8°C° 0 mm 4 mps 751 mmHg 58%
    09:00 +10°C° 0 mm 5 mps 751 mmHg 52%
    10:00 +11°C° 0 mm 4 mps 751 mmHg 50%
    11:00 +12°C° 0 mm 4 mps 751 mmHg 48%
    12:00 +13°C° 0 mm 4 mps 751 mmHg 46%
    13:00 +14°C° 0 mm 4 mps 750 mmHg 45%
    14:00 +14°C° 0 mm 4 mps 750 mmHg 45%
    15:00 +15°C° 0 mm 4 mps 750 mmHg 45%
    16:00 +14°C° 0 mm 4 mps 750 mmHg 47%
    17:00 +14°C° 0 mm 4 mps 749 mmHg 48%
    18:00 +14°C° 0 mm 4 mps 749 mmHg 50%
    19:00 +12°C° 0 mm 3 mps 749 mmHg 60%
    20:00 +12°C° 0 mm 2 mps 749 mmHg 69%
    21:00 +9°C° 0 mm 2 mps 749 mmHg 78%
    22:00 +9°C° 0.1 mm 2 mps 749 mmHg 81%
    23:00 +9°C° 0.1 mm 2 mps 749 mmHg 83%

    2 June, Tuesday

    Time Temperature Precipitation Wind Pressure Humidity
    00:00 +9°C° 0.1 mm 2 mps 749 mmHg 86%
    01:00 +9°C° 0.1 mm 2 mps 748 mmHg 88%
    02:00 +8°C° 0.1 mm 2 mps 748 mmHg 90%
    03:00 +8°C° 0.1 mm 2 mps 748 mmHg 93%
    04:00 +8°C° 0 mm 2 mps 748 mmHg 92%
    05:00 +8°C° 0 mm 2 mps 748 mmHg 92%
    06:00 +8°C° 0 mm 2 mps 748 mmHg 91%
    07:00 +10°C° 0.1 mm 3 mps 748 mmHg 85%
    08:00 +11°C° 0.1 mm 3 mps 748 mmHg 78%
    09:00 +12°C° 0.1 mm 4 mps 748 mmHg 72%
    10:00 +13°C° 0.1 mm 4 mps 748 mmHg 64%
    11:00 +14°C° 0.1 mm 3 mps 748 mmHg 56%
    12:00 +16°C° 0.1 mm 3 mps 748 mmHg 48%
    13:00 +17°C° 0 mm 3 mps 748 mmHg 47%
    14:00 +17°C° 0 mm 3 mps 748 mmHg 46%
    15:00 +17°C° 0 mm 3 mps 748 mmHg 45%
    16:00 +17°C° 0 mm 3 mps 748 mmHg 48%
    17:00 +16°C° 0 mm 3 mps 748 mmHg 50%
    18:00 +16°C° 0 mm 3 mps 748 mmHg 53%
    19:00 +13°C° 0 mm 3 mps 748 mmHg 61%
    20:00 +12°C° 0 mm 2 mps 748 mmHg 70%
    21:00 +9°C° 0 mm 2 mps 748 mmHg 78%
    22:00 +10°C° 0 mm 1 mps 748 mmHg 80%
    23:00 +9°C° 0 mm 1 mps 748 mmHg 81%

    3 June, Wednesday

    Time Temperature Precipitation Wind Pressure Humidity
    00:00 +8°C° 0 mm 1 mps 749 mmHg 83%
    01:00 +8°C° 0 mm 1 mps 749 mmHg 84%
    02:00 +8°C° 0 mm 1 mps 748 mmHg 84%
    03:00 +7°C° 0 mm 1 mps 748 mmHg 85%
    04:00 +8°C° 0 mm 1 mps 748 mmHg 82%
    05:00 +9°C° 0 mm 1 mps 748 mmHg 79%
    06:00 +8°C° 0 mm 2 mps 748 mmHg 75%
    07:00 +10°C° 0 mm 2 mps 748 mmHg 67%
    08:00 +13°C° 0 mm 2 mps 748 mmHg 58%
    09:00 +15°C° 0 mm 2 mps 748 mmHg 49%
    10:00 +16°C° 0 mm 2 mps 748 mmHg 46%
    11:00 +17°C° 0 mm 2 mps 748 mmHg 43%
    12:00 +18°C° 0 mm 2 mps 748 mmHg 40%
    13:00 +18°C° 0 mm 2 mps 748 mmHg 40%
    14:00 +18°C° 0 mm 2 mps 748 mmHg 41%
    15:00 +18°C° 0 mm 2 mps 748 mmHg 41%
    16:00 +18°C° 0 mm 2 mps 748 mmHg 45%
    17:00 +18°C° 0 mm 2 mps 748 mmHg 49%
    18:00 +19°C° 0 mm 1 mps 748 mmHg 52%
    19:00 +16°C° 0 mm 1 mps 748 mmHg 58%
    20:00 +14°C° 0 mm 1 mps 748 mmHg 64%
    21:00 +13°C° 0 mm 1 mps 748 mmHg 70%
    22:00 +12°C° 0 mm 1 mps 748 mmHg 73%
    23:00 +11°C° 0 mm 1 mps 748 mmHg 76%
    Show more